Regional Weather Roundup
Issued by NWS Sterling, VA

Home | Current Version | Previous Version | Graphics & Text | Print | Product List | Glossary On
Versions: 1 2 3 4 5 6 7 8 9 10 11 12 13 14 15 16 17 18 19 20 21 22 23 24 25 26 27
000
ASUS41 KLWX 232310
RWRLWX

REGIONAL WEATHER ROUNDUP
NATIONAL WEATHER SERVICE BALTIMORE MD/WASHINGTON DC
700 PM EDT WED APR 23 2014

Note: "FAIR" indicates few or no clouds below 12,000 feet
with no significant weather and/or obstructions to visibility.
 TC=TEMPERATURE CELSIUS

 * =Non NWS site. Station does not report precipitation (e.g. rain,
    snow, etc.), thunder, or fog.

DCZ001-MDZ009-015-VAZ040>042-051-053>054-240000-
WASHINGTON METRO

CITY           SKY/WX    TMP DP  RH WIND       PRES   REMARKS
WASHINGTON NAT PTCLDY    57  33  40 NW20G26   29.88R
DULLES         PTCLDY    54  32  43 NW20G33   29.90R
ANDREWS AFB    CLEAR     55  33  43 NW23G29   29.87R
FT BELVOIR     CLEAR     57  33  40 NW15G28   29.89R
QUANTICO       PTCLDY    58  31  35 N18G30    29.90R
COLLEGE PARK*  CLEAR     55  32  41 W16G25    29.87R
LEESBURG*      CLEAR     54  36  50 NW16G26   29.90S
MANASSAS*      CLEAR     55  34  44 NW18G29   29.89S
GAITHERSBURG*  CLEAR     52  32  46 NW16G31   29.90S

$$

MDZ006>007-011-014-240000-
BALTIMORE METRO

CITY           SKY/WX    TMP DP  RH WIND       PRES   REMARKS
BWI AIRPORT    PTCLDY    54  33  45 NW17G28   29.85R
MD SCIENCE CTR   N/A     56  32  40 MISG      29.85R
MARTIN STATE   PTCLDY    55  37  50 W24G31    29.85R
ANNAPOLIS      CLEAR     56  35  45 NW15G33   29.85R
FORT MEADE*    PTCLDY    54  32  43 NW8G23    29.89R

$$

MDZ012-015-019>023-240000-
MARYLAND EASTERN SHORE

CITY           SKY/WX    TMP DP  RH WIND       PRES   REMARKS
OCEAN CITY     CLEAR     58  36  43 NW16G26   29.78R
SALISBURY      CLEAR     60  35  39 NW20G30   29.80R
BAY BRIDGE AP* CLEAR     55  34  44 NW23      29.84S
CAMBRIDGE*     CLEAR     59  36  41 NW15G25   29.83R
EASTON*        CLEAR     57  39  51 NW20G28   29.86R

$$

MDZ017>025-240000-
SOUTHERN MARYLAND

CITY           SKY/WX    TMP DP  RH WIND       PRES   REMARKS
PATUXENT RIVER PTCLDY    58  34  40 NW23G33   29.84R
ST INIGOES     CLEAR     59  33  37 NW17G28   29.84R
LEONARDTOWN*   CLEAR     55  32  41 NW8G22    29.87R

$$

MDZ003>005-240000-
NORTH CENTRAL MARYLAND

CITY           SKY/WX    TMP DP  RH WIND       PRES   REMARKS
FREDERICK*     PTCLDY    54  37  54 NW20G29   29.92S
HAGERSTOWN APT CLEAR     49  32  52 NW26G35   29.90R
WESTMINSTER*   CLEAR     52  34  50 NW15G26   29.87R

$$

MDZ501>502-240000-
WESTERN MARYLAND

CITY           SKY/WX    TMP DP  RH WIND       PRES   REMARKS
OAKLAND*       MOSUNNY   41  28  60 NW16G25   29.93S
CUMBERLAND*    MOSUNNY   50  32  50 NW9G21    30.00R

$$

VAZ025>031-240000-
SHENANDOAH VALLEY

CITY           SKY/WX    TMP DP  RH WIND       PRES   REMARKS
WINCHESTER*    SUNNY     54  32  43 NW20G26   29.92R
STAUNTON*      SUNNY     56  28  34 NW13      29.95R

$$

WVZ021-048>050-054>055-240000-
EASTERN WEST VIRGINIA PANHANDLE

CITY           SKY/WX    TMP DP  RH WIND       PRES   REMARKS
MARTINSBURG    CLEAR     53  30  41 NW16G25   29.92R
PETERSBURG*    PTSUNNY   56  36  47 NW14G20   29.98R

$$

VAZ036>039-050-240000-
CENTRAL FOOTHILLS

CITY           SKY/WX    TMP DP  RH WIND       PRES   REMARKS
CHARLOTTESVILL SUNNY     60  29  30 NW13G24   29.88R
CULPEPER*      CLEAR     61  28  29 N13       29.91R

$$

VAZ055>057-240000-
NORTH AND CENTRAL PIEDMONT

CITY           SKY/WX    TMP DP  RH WIND       PRES   REMARKS
FREDERICKSBRG* CLEAR     61  33  34 NW10G20   29.88R
STAFFORD*      CLEAR     58  35  41 N21G26    29.92S

$$

NCZ024-NYZ072-PAZ021-071-VAZ022-071-240000-
OTHER REGIONAL OBSERVATIONS

CITY           SKY/WX    TMP DP  RH WIND       PRES   REMARKS
NEW YORK CITY  MOCLDY    51  32  48 MISG      29.73R
PHILADELPHIA   MOCLDY    58  31  35 NW20G30   29.78R
PITTSBURGH     MOSUNNY   49  29  46 NW14      30.02S
ROANOKE        SUNNY     62  27  26 NW18G26   29.93R
RICHMOND       PTCLDY    64  29  26 NW13      29.85R
RALEIGH        MOSUNNY   69  24  18 NW9       29.85R

$$

ANZ530>537-240000-
MARINE OBSERVATIONS

STATION/POSITION TIME  TEMP    WIND        PRES
                       AIR SEA DIR/SP/G
                 (UTC) (F)     (DEG/KT/KT) (MB)
THOMAS PT LIGHT  2300   55 54  300/ 25/ 29 1010.4R
BALT KEY BRIDGE  2300   55     280/ 23/ 25 1010.7R
COVE POINT       2300   57     340/ 25/ 28 1010.1R
LEWISETTA        2300   59 59  330/ 18/ 25 1010.6R
SOLOMONS ISLAND  2300      56                N/A
PINEY POINT      2300          340/ 20/ 22   N/A

$$




USA.gov is the U.S. government's official web portal to all federal, state and local government web resources and services.